This is the latest recevied weather packets stored in our database for station/object KD6VLN-14. If no packets are shown the sender has not sent any weather packets the latest 1 day(s).
| Time | Temp. | Humidity | Pressure | Rain* | Wind** | Luminosity | Snow |
|---|---|---|---|---|---|---|---|
| 1778008748 | 23.89° C | 40% | - | 0 mm | 1.79 m/s, 313° | - | - |
| 1778008641 | 23.33° C | 40% | - | 0 mm | 1.34 m/s, 315° | - | - |
| 1778008448 | 23.33° C | 40% | - | 0 mm | 1.34 m/s, 315° | - | - |
| 1778008365 | 23.33° C | 40% | - | 0 mm | 1.79 m/s, 316° | - | - |
| 1778008149 | 23.33° C | 40% | - | 0 mm | 1.79 m/s, 316° | - | - |
| 1778008041 | 23.33° C | 39% | - | 0 mm | 1.79 m/s, 303° | - | - |
| 1778007848 | 23.33° C | 39% | - | 0 mm | 1.79 m/s, 303° | - | - |
| 1778007477 | 23.89° C | 41% | - | 0 mm | 0.89 m/s, 317° | - | - |
| 1778007248 | 23.89° C | 41% | - | 0 mm | 0.89 m/s, 317° | - | - |
| 1778007177 | 24.44° C | 42% | - | 0 mm | 1.34 m/s, 303° | - | - |
| 1778006948 | 24.44° C | 42% | - | 0 mm | 1.34 m/s, 303° | - | - |
| 1778006818 | 23.33° C | 42% | - | 0 mm | 1.34 m/s, 310° | - | - |
| 1778006648 | 23.33° C | 42% | - | 0 mm | 1.34 m/s, 310° | - | - |
| 1778006197 | 23.33° C | 39% | - | 0 mm | 1.34 m/s, 317° | - | - |
| 1778006048 | 23.33° C | 39% | - | 0 mm | 1.34 m/s, 317° | - | - |
| 1778005979 | 23.33° C | 39% | - | 0 mm | 1.79 m/s, 264° | - | - |
| 1778005748 | 23.33° C | 39% | - | 0 mm | 1.79 m/s, 264° | - | - |
| 1778005692 | 22.78° C | 38% | - | 0 mm | 1.34 m/s, 315° | - | - |
| 1778005448 | 22.78° C | 38% | - | 0 mm | 1.34 m/s, 315° | - | - |
| 1778005306 | 22.78° C | 39% | - | 0 mm | 1.34 m/s, 317° | - | - |
| 1778005148 | 22.78° C | 39% | - | 0 mm | 1.34 m/s, 317° | - | - |
| 1778004999 | 23.33° C | 39% | - | 0 mm | 1.79 m/s, 262° | - | - |
| 1778004848 | 23.33° C | 39% | - | 0 mm | 1.79 m/s, 262° | - | - |
| 1778004778 | 23.89° C | 39% | - | 0 mm | 1.34 m/s, 270° | - | - |
| 1778004548 | 23.89° C | 39% | - | 0 mm | 1.34 m/s, 270° | - | - |
* Rain latest hour (hover to see other rain measurements)
** Current wind speed in m/s (hover to see current wind gust speed)